2018-083C (43664 NORAD) Tracking and Keplerian Element Data

This shows tracking and keplerian element data for the satellite.

Feedback or suggestion? Click here.




ElementValue
Catalog43664
Name2018-083C
Epoch Orbit461
Epoch Day332.45056576
Epoch Year2018
RAAN353.0726
Inclination97.5183
Eccentricity0.0012531
Argument of Perigee157.5141
Mean Anonmoly345.1103
Mean Motion15.16600729
Decay Rate6.8E-06
L11 43664U 18083C 18332.45056576 .00000680 00000-0 38207-4 0 9996
L22 43664 97.5183 353.0726 0012531 157.5141 345.1103 15.16600729 4615

Live tracking and technical data element details for 2018-083C (NORAD 43664). 2018-083C can be tracked NOW for your location showing map with azimuth and elevation plus other details from your city location.

Track the satellite on the map from your city or location and see movement details for azimuth, elevation, latitude, longitude, range, height, and movement on the map or in text.







IsCatalogInMostPopularTable: catalog: 43664, numindb: 114
Update: records affected: 1



GetName: 43664 2018-083C

Hit Count: updated at: Sat, 20 Jul 2019 22:24:55 GMT